Weather History for Stevens Point, WI

Change the Weather History Date:

Tuesday, December 20, 2011

  Actual Average Record
Temperature  
Mean Temperature 27 °F -  
Max Temperature 33 °F 26 °F 45 °F (1967)
Min Temperature 19 °F 10 °F -19 °F (1989)
Degree Days  
Heating Degree Days 38    
Moisture  
Dew Point 21 °F    
Average Humidity 73    
Maximum Humidity 100    
Minimum Humidity 56    
Precipitation  
Precipitation 0.00 in - - ()
Sea Level Pressure  
Sea Level Pressure 30.01 in    
Wind  
Wind Speed 3 mph (South)    
Max Wind Speed 15 mph    
Max Gust Speed -    
Visibility 10 miles    
Events      
Averages and records for this station are not official NWS values.
T = Trace of Precipitation, MM = Missing Value Source: NWS Daily Summary

Daily Weather History Graph

Daily Weather History Graph

Search for Another Location

Airport:

Trip Planner

Search our weather history database for the weather conditions in past years. The results will help you decide how hot, cold, wet, or windy it might be!

Date:

Astronomy

Dec. 20, 2011 Rise Set
Actual Time 7:30 AM CST 4:20 PM CST
Civil Twilight 6:57 AM CST 4:53 PM CST
Nautical Twilight 6:20 AM CST 5:30 PM CST
Astronomical Twilight 5:44 AM CST 6:06 PM CST
Moon 2:46 AM CST (12/20) 1:01 PM CST (12/20)
Length of Visible Light 9h 56m
Length of Day
8h 49m
Waning Crescent, 21% of the Moon is Illuminated
Dec 20
Waning Crescent
Dec 24
New
Jan 1
First Quarter
Jan 9
Full
Jan 16
Last Quarter

Hourly Weather History & Observations

Time (CST) Temp. Windchill Dew Point Humidity Pressure Visibility Wind Dir Wind Speed Gust Speed Precip Events Conditions
12:35 AM 30.2 °F 26.7 °F 19.4 °F 64% 30.22 in 10.0 mi North 3.5 mph - N/A   Overcast
12:55 AM 30.2 °F - 19.4 °F 64% 30.21 in 10.0 mi Calm Calm - N/A   Overcast
1:15 AM 30.2 °F 26.7 °F 19.4 °F 64% 30.21 in 10.0 mi ENE 3.5 mph - N/A   Overcast
1:35 AM 28.4 °F - 19.4 °F 69% 30.21 in 10.0 mi Calm Calm - N/A   Overcast
1:55 AM 28.4 °F - 19.4 °F 69% 30.20 in 10.0 mi Calm Calm - N/A   Overcast
2:15 AM 28.4 °F - 19.4 °F 69% 30.20 in 10.0 mi Calm Calm - N/A   Overcast
2:35 AM 28.4 °F - 19.4 °F 69% 30.21 in 10.0 mi Calm Calm - N/A   Overcast
2:55 AM 28.4 °F - 19.4 °F 69% 30.21 in 10.0 mi Calm Calm - N/A   Overcast
3:15 AM 28.4 °F - 19.4 °F 69% 30.20 in 10.0 mi Calm Calm - N/A   Overcast
3:35 AM 28.4 °F - 19.4 °F 69% 30.19 in 10.0 mi Calm Calm - N/A   Overcast
3:55 AM 28.4 °F - 19.4 °F 69% 30.18 in 10.0 mi Calm Calm - N/A   Overcast
4:15 AM 28.4 °F - 19.4 °F 69% 30.18 in 10.0 mi Calm Calm - N/A   Overcast
4:35 AM 28.4 °F - 19.4 °F 69% 30.16 in 10.0 mi Calm Calm - N/A   Overcast
4:55 AM 28.4 °F - 19.4 °F 69% 30.15 in 10.0 mi Calm Calm - N/A   Overcast
5:35 AM 28.4 °F - 19.4 °F 69% 30.16 in 10.0 mi Calm Calm - N/A   Overcast
6:15 AM 28.4 °F - 21.2 °F 74% 30.16 in 10.0 mi Calm Calm - N/A   Overcast
6:55 AM 28.4 °F - 21.2 °F 74% 30.15 in 10.0 mi Calm Calm - N/A   Overcast
7:15 AM 28.4 °F - 21.2 °F 74% 30.14 in 10.0 mi Calm Calm - N/A   Overcast
7:35 AM 28.4 °F - 21.2 °F 74% 30.13 in 10.0 mi Calm Calm - N/A   Overcast
7:55 AM 26.6 °F - 21.2 °F 80% 30.11 in 10.0 mi Calm Calm - N/A   Mostly Cloudy
8:15 AM 26.6 °F - 21.2 °F 80% 30.11 in 10.0 mi Calm Calm - N/A   Mostly Cloudy
8:35 AM 24.8 °F 20.5 °F 19.4 °F 80% 30.10 in 10.0 mi South 3.5 mph - N/A   Scattered Clouds
8:55 AM 26.6 °F 22.6 °F 21.2 °F 80% 30.09 in 10.0 mi SSE 3.5 mph - N/A   Clear
9:15 AM 26.6 °F - 19.4 °F 74% 30.07 in 10.0 mi Calm Calm - N/A   Clear
9:35 AM 28.4 °F 23.3 °F 19.4 °F 69% 30.07 in 10.0 mi SSE 4.6 mph - N/A   Clear
9:55 AM 30.2 °F 25.4 °F 19.4 °F 64% 30.07 in 10.0 mi South 4.6 mph - N/A   Clear
10:15 AM 30.2 °F 25.4 °F 19.4 °F 64% 30.07 in 10.0 mi South 4.6 mph - N/A   Clear
10:35 AM 32.0 °F 24.8 °F 19.4 °F 60% 30.06 in 10.0 mi South 8.1 mph - N/A   Mostly Cloudy
10:55 AM 33.8 °F 25.8 °F 19.4 °F 56% 30.05 in 10.0 mi South 10.4 mph - N/A   Mostly Cloudy
11:55 AM 32.0 °F 24.8 °F 21.2 °F 64% 30.01 in 10.0 mi South 8.1 mph - N/A   Overcast
12:15 PM 33.8 °F 27.7 °F 21.2 °F 60% 30.00 in 10.0 mi South 6.9 mph - N/A   Overcast
12:35 PM 33.8 °F 25.8 °F 21.2 °F 60% 29.98 in 10.0 mi South 10.4 mph - N/A   Overcast
12:55 PM 33.8 °F 23.9 °F 21.2 °F 60% 29.97 in 10.0 mi SSW 15.0 mph - N/A   Overcast
1:15 PM 33.8 °F 26.4 °F 21.2 °F 60% 29.96 in 10.0 mi SSW 9.2 mph - N/A   Mostly Cloudy
1:35 PM 33.8 °F 25.3 °F 21.2 °F 60% 29.96 in 10.0 mi SSW 11.5 mph - N/A   Mostly Cloudy
1:55 PM 33.8 °F 27.0 °F 21.2 °F 60% 29.96 in 10.0 mi SSW 8.1 mph - N/A   Overcast
2:15 PM 33.8 °F 25.8 °F 21.2 °F 60% 29.94 in 10.0 mi SSW 10.4 mph - N/A   Overcast
2:35 PM 32.0 °F 25.6 °F 21.2 °F 64% 29.93 in 10.0 mi SW 6.9 mph - N/A   Overcast
2:55 PM 32.0 °F 26.4 °F 23.0 °F 69% 29.92 in 10.0 mi SSW 5.8 mph - N/A   Overcast
3:15 PM 32.0 °F 24.8 °F 21.2 °F 64% 29.92 in 10.0 mi SSW 8.1 mph - N/A   Overcast
3:35 PM 32.0 °F 24.8 °F 21.2 °F 64% 29.90 in 10.0 mi SW 8.1 mph - N/A   Mostly Cloudy
3:55 PM 30.2 °F 24.3 °F 21.2 °F 69% 29.89 in 10.0 mi SSW 5.8 mph - N/A   Clear
4:15 PM 30.2 °F 26.7 °F 21.2 °F 69% 29.89 in 10.0 mi SSW 3.5 mph - N/A   Clear
4:35 PM 28.4 °F 24.6 °F 21.2 °F 74% 29.88 in 10.0 mi SSW 3.5 mph - N/A   Clear
4:55 PM 28.4 °F 24.6 °F 21.2 °F 74% 29.88 in 10.0 mi SSW 3.5 mph - N/A   Clear
5:55 PM 28.4 °F 24.6 °F 23.0 °F 80% 29.86 in 10.0 mi SSW 3.5 mph - N/A   Mostly Cloudy
6:15 PM 28.4 °F 24.6 °F 24.8 °F 86% 29.85 in 10.0 mi South 3.5 mph - N/A   Overcast
6:35 PM 28.4 °F - 24.8 °F 86% 29.85 in 10.0 mi Calm Calm - N/A   Overcast
7:15 PM 28.4 °F - 24.8 °F 86% 29.84 in 10.0 mi Calm Calm - N/A   Overcast
7:35 PM 28.4 °F 22.2 °F 24.8 °F 86% 29.83 in 10.0 mi South 5.8 mph - N/A   Mostly Cloudy
7:55 PM 26.6 °F 21.2 °F 23.0 °F 86% 29.83 in 10.0 mi South 4.6 mph - N/A   Scattered Clouds
8:15 PM 26.6 °F 22.6 °F 24.8 °F 93% 29.82 in 10.0 mi South 3.5 mph - N/A   Mostly Cloudy
8:35 PM 28.4 °F 24.6 °F 24.8 °F 86% 29.82 in 10.0 mi South 3.5 mph - N/A   Overcast
8:55 PM 26.6 °F - 24.8 °F 93% 29.82 in 10.0 mi Calm Calm - N/A   Overcast
9:35 PM 28.4 °F 24.6 °F 24.8 °F 86% 29.81 in 10.0 mi South 3.5 mph - N/A   Overcast
9:55 PM 26.6 °F 22.6 °F 23.0 °F 86% 29.81 in 10.0 mi South 3.5 mph - N/A   Scattered Clouds
10:15 PM 26.6 °F - 23.0 °F 86% 29.80 in 10.0 mi Calm Calm - N/A   Clear
10:35 PM 24.8 °F - 23.0 °F 93% 29.80 in 7.0 mi Calm Calm - N/A   Clear
11:15 PM 21.2 °F - 21.2 °F 100% 29.78 in 2.0 mi Calm Calm - N/A   Clear
11:35 PM 21.2 °F - 19.4 °F 93% 29.77 in 1.0 mi Calm Calm - N/A   Mist
11:55 PM 19.4 °F - 17.6 °F 93% 29.77 in 5.0 mi Calm Calm - N/A   Clear